TimePDT,TemperatureF,Dew PointF,Humidity,Sea Level PressureIn,VisibilityMPH,Wind Direction,Wind SpeedMPH,Gust SpeedMPH,PrecipitationIn,Events,Conditions,WindDirDegrees,DateUTC
12:15 AM,44.6,15.8,31,29.79,10.0,West,8.1,20.7,N/A,,Clear,260,2013-10-09 07:15:00
12:35 AM,44.6,15.8,31,29.79,10.0,West,10.4,-,N/A,,Scattered Clouds,270,2013-10-09 07:35:00
12:55 AM,46.4,15.8,29,29.78,10.0,WSW,13.8,19.6,N/A,,Scattered Clouds,250,2013-10-09 07:55:00
1:15 AM,44.6,15.8,31,29.76,10.0,West,9.2,-,N/A,,Scattered Clouds,260,2013-10-09 08:15:00
1:35 AM,44.6,14.0,29,29.76,10.0,WSW,8.1,-,N/A,,Mostly Cloudy,250,2013-10-09 08:35:00
1:55 AM,42.8,15.8,34,29.75,10.0,WNW,3.5,-,N/A,,Scattered Clouds,300,2013-10-09 08:55:00
2:15 AM,41.0,17.6,39,29.74,10.0,NNW,3.5,-,N/A,,Clear,330,2013-10-09 09:15:00
2:35 AM,41.0,17.6,39,29.73,10.0,NNW,8.1,-,N/A,,Clear,330,2013-10-09 09:35:00
2:55 AM,42.8,15.8,34,29.72,10.0,WNW,8.1,-,N/A,,Clear,300,2013-10-09 09:55:00
3:15 AM,41.0,17.6,39,29.72,10.0,WNW,5.8,-,N/A,,Scattered Clouds,300,2013-10-09 10:15:00
3:35 AM,41.0,19.4,42,29.71,10.0,NW,9.2,-,N/A,,Scattered Clouds,310,2013-10-09 10:35:00
3:55 AM,41.0,19.4,42,29.70,10.0,NW,6.9,27.6,N/A,,Scattered Clouds,320,2013-10-09 10:55:00
4:15 AM,41.0,19.4,42,29.69,10.0,NW,10.4,17.3,N/A,,Scattered Clouds,310,2013-10-09 11:15:00
4:35 AM,41.0,21.2,45,29.68,10.0,NW,5.8,-,N/A,,Mostly Cloudy,320,2013-10-09 11:35:00
4:55 AM,41.0,21.2,45,29.67,10.0,NNW,9.2,-,N/A,,Overcast,340,2013-10-09 11:55:00
5:15 AM,41.0,21.2,45,29.66,10.0,NNW,3.5,-,N/A,,Mostly Cloudy,340,2013-10-09 12:15:00
5:35 AM,39.2,21.2,49,29.66,10.0,WNW,8.1,-,N/A,,Scattered Clouds,300,2013-10-09 12:35:00
5:55 AM,39.2,21.2,49,29.65,10.0,WNW,5.8,-,N/A,,Overcast,300,2013-10-09 12:55:00
6:15 AM,39.2,21.2,49,29.65,10.0,WNW,6.9,-,N/A,,Overcast,300,2013-10-09 13:15:00
6:35 AM,39.2,21.2,49,29.65,10.0,NW,5.8,-,N/A,,Overcast,310,2013-10-09 13:35:00
6:55 AM,39.2,21.2,49,29.64,10.0,West,3.5,-,N/A,,Overcast,260,2013-10-09 13:55:00
7:15 AM,41.0,21.2,45,29.65,10.0,WSW,5.8,-,N/A,,Overcast,240,2013-10-09 14:15:00
7:35 AM,39.2,24.8,56,29.63,10.0,NW,10.4,-,N/A,,Overcast,310,2013-10-09 14:35:00
7:55 AM,39.2,24.8,56,29.63,10.0,WNW,15.0,-,N/A,,Overcast,290,2013-10-09 14:55:00
8:15 AM,37.4,24.8,60,29.64,10.0,NW,13.8,18.4,N/A,,Overcast,310,2013-10-09 15:15:00
8:35 AM,37.4,26.6,65,29.65,10.0,SW,3.5,9.2,N/A,,Overcast,230,2013-10-09 15:35:00
8:55 AM,39.2,26.6,61,29.65,10.0,Calm,Calm,-,N/A,,Overcast,0,2013-10-09 15:55:00
9:15 AM,39.2,26.6,61,29.66,10.0,Calm,Calm,-,N/A,,Overcast,0,2013-10-09 16:15:00
9:35 AM,41.0,26.6,57,29.65,10.0,NNW,9.2,-,N/A,,Overcast,340,2013-10-09 16:35:00
9:55 AM,41.0,26.6,57,29.65,10.0,NNW,4.6,-,N/A,,Overcast,330,2013-10-09 16:55:00
10:15 AM,41.0,26.6,57,29.66,10.0,North,6.9,-,N/A,,Overcast,360,2013-10-09 17:15:00
10:35 AM,42.8,26.6,53,29.65,10.0,North,4.6,-,N/A,,Overcast,360,2013-10-09 17:35:00
10:55 AM,41.0,26.6,57,29.65,10.0,North,12.7,17.3,N/A,,Overcast,350,2013-10-09 17:55:00
11:15 AM,41.0,26.6,57,29.65,10.0,NNW,10.4,17.3,N/A,,Overcast,330,2013-10-09 18:15:00
11:35 AM,41.0,24.8,53,29.65,10.0,NNW,11.5,-,N/A,,Overcast,340,2013-10-09 18:35:00
11:55 AM,41.0,24.8,53,29.65,10.0,NW,15.0,-,N/A,,Overcast,320,2013-10-09 18:55:00
12:15 PM,41.0,24.8,53,29.65,10.0,NNW,12.7,-,N/A,,Overcast,330,2013-10-09 19:15:00
12:35 PM,39.2,28.4,65,29.65,10.0,NW,15.0,19.6,N/A,,Overcast,320,2013-10-09 19:35:00
12:55 PM,37.4,30.2,75,29.66,7.0,NW,9.2,23.0,N/A,Snow,Light Snow,320,2013-10-09 19:55:00
1:15 PM,37.4,30.2,75,29.65,10.0,NW,10.4,17.3,N/A,,Overcast,310,2013-10-09 20:15:00
1:35 PM,37.4,32.0,81,29.66,7.0,North,8.1,-,N/A,Snow,Light Snow,350,2013-10-09 20:35:00
1:55 PM,35.6,32.0,87,29.66,1.5,Calm,Calm,-,N/A,Snow,Light Snow,0,2013-10-09 20:55:00
2:15 PM,33.8,32.0,93,29.67,1.5,WNW,8.1,-,N/A,Snow,Light Snow,300,2013-10-09 21:15:00
2:35 PM,33.8,32.0,93,29.68,1.0,NW,5.8,-,0.01,Snow,Light Snow,310,2013-10-09 21:35:00
2:55 PM,33.8,32.0,93,29.68,1.0,West,6.9,-,0.01,Snow,Light Snow,280,2013-10-09 21:55:00
3:15 PM,33.8,33.8,100,29.69,1.5,West,8.1,-,N/A,Snow,Light Snow,260,2013-10-09 22:15:00
3:35 PM,33.8,32.0,93,29.70,5.0,WNW,8.1,11.5,N/A,Snow,Light Snow,290,2013-10-09 22:35:00
3:55 PM,35.6,32.0,87,29.70,10.0,West,11.5,16.1,N/A,,Overcast,270,2013-10-09 22:55:00
4:15 PM,35.6,32.0,87,29.70,1.0,West,9.2,-,N/A,Snow,Light Snow,270,2013-10-09 23:15:00
4:55 PM,35.6,32.0,87,29.70,10.0,West,9.2,-,N/A,,Overcast,280,2013-10-09 23:55:00
5:15 PM,35.6,32.0,87,29.71,10.0,WNW,6.9,-,N/A,,Overcast,300,2013-10-10 00:15:00
5:35 PM,35.6,32.0,87,29.71,10.0,West,10.4,-,N/A,,Overcast,280,2013-10-10 00:35:00
5:55 PM,35.6,32.0,87,29.71,10.0,West,10.4,-,N/A,,Overcast,280,2013-10-10 00:55:00
6:15 PM,35.6,32.0,87,29.72,10.0,West,8.1,-,N/A,,Overcast,270,2013-10-10 01:15:00
6:35 PM,35.6,32.0,87,29.73,10.0,West,9.2,-,N/A,,Overcast,260,2013-10-10 01:35:00
6:55 PM,35.6,32.0,87,29.73,10.0,West,10.4,-,N/A,,Overcast,260,2013-10-10 01:55:00
7:15 PM,35.6,32.0,87,29.74,5.0,WNW,10.4,-,N/A,Snow,Light Snow,300,2013-10-10 02:15:00
7:55 PM,33.8,32.0,93,29.75,10.0,West,8.1,-,N/A,,Overcast,270,2013-10-10 02:55:00
8:15 PM,33.8,32.0,93,29.75,7.0,West,8.1,-,N/A,Snow,Light Snow,260,2013-10-10 03:15:00
8:35 PM,35.6,32.0,87,29.76,10.0,West,9.2,-,N/A,,Overcast,270,2013-10-10 03:35:00
8:55 PM,35.6,32.0,87,29.76,10.0,WSW,9.2,-,N/A,,Overcast,250,2013-10-10 03:55:00
9:15 PM,35.6,32.0,87,29.77,10.0,West,10.4,-,N/A,,Overcast,280,2013-10-10 04:15:00
9:55 PM,35.6,32.0,87,29.79,10.0,West,6.9,-,N/A,,Overcast,270,2013-10-10 04:55:00
10:15 PM,35.6,32.0,87,29.79,10.0,West,4.6,-,N/A,,Overcast,280,2013-10-10 05:15:00
10:35 PM,35.6,32.0,87,29.80,10.0,West,5.8,-,N/A,,Overcast,280,2013-10-10 05:35:00
10:55 PM,33.8,32.0,93,29.81,10.0,West,6.9,-,N/A,,Overcast,280,2013-10-10 05:55:00
11:15 PM,35.6,32.0,87,29.81,10.0,West,5.8,-,N/A,,Overcast,280,2013-10-10 06:15:00
11:35 PM,35.6,32.0,87,29.81,10.0,West,6.9,-,N/A,,Overcast,280,2013-10-10 06:35:00
11:55 PM,35.6,32.0,87,29.81,10.0,WNW,4.6,-,N/A,,Overcast,290,2013-10-10 06:55:00